Regional Weather Roundup
Issued by NWS

Home | Current Version | Previous Version | Graphics & Text | Print | Product List | Glossary On
Versions: 1 2 3 4 5 6 7 8 9 10 11 12 13 14 15 16 17 18 19 20 21 22 23 24 25 26 27 28 29 30 31 32 33 34 35 36 37 38 39 40 41 42 43 44 45 46 47 48 49 50
000
ASUS45 KBOU 031107
RWRCO

WEATHER ROUNDUP FOR COLORADO
NATIONAL WEATHER SERVICE DENVER/BOULDER CO
500 AM MDT THU SEP 03 2015

NOTE: "FAIR" INDICATES FEW OR NO CLOUDS BELOW 12000 FEET WITH NO
SIGNIFICANT WEATHER AND/OR OBSTRUCTIONS TO VISIBILITY.

COZ001>005-013-030-031-031200-
...NORTHWEST COLORADO...

CITY           SKY/WX    TMP DP  RH WIND       PRES   REMARKS
CRAIG          PTCLDY    48  44  86 CALM      30.13R
HAYDEN         NOT AVBL
MEEKER         PTCLDY    51  47  86 E5        30.14R
MOUNT WERNER   NOT AVBL
STEAMBOAT SPGS PTCLDY    49  44  84 CALM      30.17R
WALDEN         MOCLDY    45  37  76 SE5       30.25S
$$

COZ006>008-011-031200-
...WEST CENTRAL VALLEYS...

CITY           SKY/WX    TMP DP  RH WIND       PRES   REMARKS
GRAND JUNCTION MOCLDY    69  49  48 SE9       30.03R
MONTROSE       CLOUDY    64  49  57 MISG      30.14R
EAGLE          MOCLDY    54  46  76 E5        30.21S
RIFLE          PTCLDY    58  51  78 CALM      30.10R
DELTA          CLOUDY    67  49  54 E3        30.10R
NUCLA          CLOUDY    64  46  52 CALM      30.19R
$$

COZ017>023-064>068-031200-
...SOUTHWEST COLORADO...

CITY           SKY/WX    TMP DP  RH WIND       PRES   REMARKS
DURANGO        CLOUDY    60  49  66 N3        30.22F
CORTEZ         CLOUDY    62  58  86 CALM      30.18S
PAGOSA SPRINGS CLOUDY    56  46  68 CALM      30.29S
TELLURIDE      CLOUDY    55  45  70 E6G16     30.37R
WOLF CREEK PAS NOT AVBL
$$

COZ009-010-012-014-032>034-037-058>063-031200-
...CENTRAL COLORADO...

CITY           SKY/WX    TMP DP  RH WIND       PRES   REMARKS
ASPEN          MOCLDY    52  44  74 S5        30.25R
BUENA VISTA    CLOUDY    52  43  72 NW3       30.28S
COPPER MTN     CLOUDY    52  37  58 S13       30.55R
BERTHOUD PASS  MOCLDY    43  30  61 NW17      30.58R
COTTONWOOD PAS CLOUDY    55  37  50 E5        30.39S
GUNNISON       CLOUDY    48  45  87 E3        30.32R
KREMMLING      CLOUDY    50  41  71 CALM      30.25R
LEADVILLE      MOCLDY    42  40  92 CALM      30.39R
MONARCH PASS   CLOUDY    45  36  70 W15       30.63S
SALIDA         CLOUDY    60  43  53 N7        30.31R
SUNLIGHT       MOCLDY    50  43  76 CALM      30.47S
WILKERSON PASS CLOUDY    48  36  61 NW8       30.51S
$$

COZ069>075-031200-
...SAN LUIS VALLEY/SANGRE DE CRISTO MOUNTAINS...

CITY           SKY/WX    TMP DP  RH WIND       PRES   REMARKS
ALAMOSA        CLOUDY    50  48  93 CALM      30.26S
LA VETA PASS   PTCLDY    46  37  71 S13G22    30.38S
SAGUACHE       CLOUDY    50  43  76 N8        30.30S
$$

COZ035-036-038>040-031200-
...NORTHERN COLORADO FRONT RANGE...

CITY           SKY/WX    TMP DP  RH WIND       PRES   REMARKS
DENVER INTL AP MOCLDY    67  43  41 CALM      30.02R
DMNS CITY PARK   N/A     64  46  52 E9        30.03R
AURORA         PTCLDY    65  43  43 S6        30.05R
FRONT RANGE AP NOT AVBL
ERIE MUNI ARPT MOCLDY    57  48  70 CALM      30.00S
BOULDER MUN AP MOCLDY    64  46  52 CALM      30.01S
CENTENNIAL     MOCLDY    69  41  36 W6        30.05S
BROOMFIELD     MOCLDY    68  43  40 CALM      30.05R
FORT COLLINS   MOCLDY    63  45  51 CALM      30.00S
LONGMONT       MOCLDY    60  47  62 CALM      30.01S
$$

COZ041-046-047-076>085-087-088-031200-
...PIKES PEAK/PALMER DIVIDE AND SOUTHERN FOOTHILLS...

CITY           SKY/WX    TMP DP  RH WIND       PRES   REMARKS
COLO. SPRINGS  PTCLDY    66  41  40 N10       30.08S
A. F. ACADEMY  MOCLDY    69  39  33 NE10G17   30.10S
ELLICOTT       PTCLDY   N/A N/A N/A N8        30.06S
FALCON         PTCLDY    66  38  35 MISG      30.14S
FORT CARSON    MOCLDY    63  44  50 NW8       30.04S
LIMON          PTCLDY    58  44  60 NW3       30.02S
MONUMENT HILL  MOCLDY    63  37  39 SW8       30.15S
TRINIDAD       PTCLDY    62  44  51 W9        30.07S
$$

COZ042>045-048>051-090-091-031200-
...NORTHEAST COLORADO...

CITY           SKY/WX    TMP DP  RH WIND       PRES   REMARKS
GREELEY ARPT   MOCLDY    61  46  59 CALM      29.99R
AKRON          PTCLDY    65  42  43 SW8       29.97R
BURLINGTON     CLEAR     59  53  80 W8        29.92S
WRAY           CLOUDY    57  49  74 SW8       29.89S
STERLING       PTCLDY    52  50  93 SW3       29.91S
HOLYOKE        CLEAR     61  54  77 W6        29.90R
FORT MORGAN    PTCLDY    57  47  69 W8        29.96S
$$

COZ086-089-092>099-031200-
...SOUTHEAST COLORADO...

CITY           SKY/WX    TMP DP  RH WIND       PRES   REMARKS
PUEBLO         PTCLDY    68  44  42 SW7       29.96S
LA JUNTA       MOCLDY    71  47  42 SW8       29.93S
LAMAR          MOCLDY    64  54  69 CALM      29.89S
SPRINGFIELD      N/A     67  53  61 SW6       29.95
$$




USA.gov is the U.S. government's official web portal to all federal, state and local government web resources and services.